THOR ABLESTAR DEB

Satellite information

Favourite Embed

Satellite Type and Status

DEBRISIN ORBIT

Key statistics

Satellite THOR ABLESTAR DEB at a glance.

Uptime

23323

Days in orbit

Revolutions

≈ 14.2

Per day

Orbit

LEO

Low Earth Orbit

Inclination

66.7

Latest

Satellite identification and parameters

Extended collection of information and parameters for THOR ABLESTAR DEB.

Object identification

Identified? True

Debris? True

Object name: THOR ABLESTAR DEB

International designator: 1961-015HD

Object number (NORAD): 652

Object ID (CCSDS): 652

Country: UNITED STATES OF AMERICA (US)

Current information (Y/N): Y

RCS size: SMALL

Orbital parameters

Period: 101.627 minutes

Inclination: 66.7064 deg

SMA: 7213.814 km

Apoapsis: 894.473 km

Periapsis: 776.886 km

RAAN: 68.1435 deg

Eccentricy: 0.0081501

Argument of periapsis: 287.2299 deg

Mean anomaly: 71.9884 deg

Mean motion: 14.16952629 rev/day

Mean motion (dot): 0.00002231 rev/day2

B* drag term: 0.0011138 1/REarth

Two-line elements (TLE)

Creation date: May 7, 2025, 3:14 a.m.

Reference frame: TEME

Reference center: EARTH

Epoch: May 6, 2025, 9:25 p.m. UTC

TLE line 0: 0 THOR ABLESTAR DEB

TLE line 1: 1 00652U 61015HD 25126.89294956 .00002231 00000-0 11138-2 0 9998

TLE line 2: 2 00652 66.7064 68.1435 0081501 287.2299 71.9884 14.16952629236266

Live tracking on map

Real-time ground track for satellite THOR ABLESTAR DEB.

In-orbit conjunctions

A list of the most updated potential collisions computed for object THOR ABLESTAR DEB.

Target Orbit TCA Probability of collision Miss distance Type
CZ-6A DEB LEO 2024-12-17 06:51:09 0.0001362531 876.0 (m) DEBRIS
CZ-6A DEB LEO 2024-11-24 05:05:47 0.0001403762 316.0 (m) DEBRIS
DMSP 5D-2 F13 DEB SSO 2024-11-14 09:43:49 0.0001065522 561.0 (m) DEBRIS
FENGYUN 1C DEB SSO 2024-11-09 04:57:47 0.0001560091 297.0 (m) DEBRIS
CZ-6A DEB LEO 2024-09-24 02:01:29 0.0003291462 554.0 (m) DEBRIS

Associated space launch

THOR ABLESTAR DEB was lifted into orbit during the mission ‘Thor DM-21 Ablestar | Transit 4A & Injun-1 & Solrad 3’, on board a Thor DM-21 Ablestar space rocket.

The launch took place on June 29, 1961, 4:23 a.m. from Space Launch Complex 17B.

For more information about the launch, click the button.

Launch to space Thor DM-21 Ablestar | Transit 4A & Injun-1 & Solrad 3
Thor DM-21 Ablestar | Transit 4A & Injun-1 & Solrad 3

Agency: N/A

Status: Launch Successful

Launch date: June 29, 1961, 4:23 a.m. UTC

Rocket: Thor DM-21 Ablestar

Launch pad: Space Launch Complex 17B

Location: Cape Canaveral SFS, FL, USA

...

Latest news about this satellite

There are no fresh news available about this satellite. Check back as we update our databases every day.


Newsletter sign-up

Weekly statistics, charts and insights to help you stay on top of the space industry.